Location: Chevoux
(46.3801°N, 4.9476°E)
Time: 08:26:17
(UTC+00:00)

X-37B - Pass Details

Date: 19 April 2021
Orbit: 386 x 389 km, 45.0° (Epoch: 08 May)

Event Time Altitude Azimuth Distance (km) Brightness Sun altitude
Exits shadow 02:20:46 18° 116° (ESE) 1,052 2.9 -22.0°
Drops below altitude 10° 02:21:58 10° 98° (E) 1,414 3.8 -21.9°
Sets 02:24:17 0° 84° (E) 2,270 5.2 -21.6°
